TimeEST,TemperatureF,Dew PointF,Humidity,Sea Level PressureIn,VisibilityMPH,Wind Direction,Wind SpeedMPH,Gust SpeedMPH,PrecipitationIn,Events,Conditions,WindDirDegrees,DateUTC
12:53 AM,14.0,10.9,88,30.27,10.0,Calm,Calm,-,N/A,,Clear,0,2012-12-07 05:53:00
1:53 AM,15.1,10.9,84,30.26,10.0,Calm,Calm,-,N/A,,Clear,0,2012-12-07 06:53:00
2:53 AM,15.1,10.9,84,30.25,10.0,Calm,Calm,-,N/A,,Clear,0,2012-12-07 07:53:00
3:53 AM,17.1,12.9,84,30.23,10.0,Calm,Calm,-,N/A,,Clear,0,2012-12-07 08:53:00
4:53 AM,18.0,14.0,84,30.24,10.0,Calm,Calm,-,N/A,,Clear,0,2012-12-07 09:53:00
5:53 AM,17.1,14.0,88,30.25,10.0,Calm,Calm,-,N/A,,Clear,0,2012-12-07 10:53:00
6:53 AM,18.0,14.0,84,30.23,10.0,SSW,3.5,-,N/A,,Clear,200,2012-12-07 11:53:00
7:53 AM,19.9,14.0,78,30.22,10.0,South,3.5,-,N/A,,Clear,180,2012-12-07 12:53:00
8:53 AM,23.0,16.0,74,30.18,10.0,South,8.1,-,N/A,,Scattered Clouds,170,2012-12-07 13:53:00
9:53 AM,25.0,17.1,72,30.18,10.0,South,8.1,-,N/A,,Clear,180,2012-12-07 14:53:00
10:53 AM,30.0,17.1,59,30.14,10.0,South,6.9,-,N/A,,Clear,180,2012-12-07 15:53:00
11:53 AM,32.0,18.0,56,30.12,10.0,South,9.2,-,N/A,,Clear,190,2012-12-07 16:53:00
12:53 PM,35.1,21.9,59,30.11,10.0,SSW,8.1,-,N/A,,Partly Cloudy,210,2012-12-07 17:53:00
1:53 PM,35.1,23.0,61,30.09,10.0,Variable,6.9,-,N/A,,Partly Cloudy,0,2012-12-07 18:53:00
2:53 PM,35.1,24.1,64,30.08,10.0,South,5.8,-,N/A,,Clear,190,2012-12-07 19:53:00
3:53 PM,33.1,24.1,70,30.07,10.0,South,3.5,-,N/A,,Clear,180,2012-12-07 20:53:00
4:53 PM,32.0,24.1,73,30.06,10.0,South,4.6,-,N/A,,Clear,170,2012-12-07 21:53:00
5:53 PM,30.9,24.1,76,30.06,10.0,South,5.8,-,N/A,,Clear,190,2012-12-07 22:53:00
6:19 PM,33.8,24.8,70,30.03,10.0,Calm,Calm,-,N/A,,Mostly Cloudy,0,2012-12-07 23:19:00
6:53 PM,33.1,25.0,72,30.05,10.0,South,4.6,-,N/A,,Overcast,170,2012-12-07 23:53:00
7:23 PM,33.8,26.6,75,30.02,10.0,South,6.9,-,N/A,,Overcast,170,2012-12-08 00:23:00
7:53 PM,33.8,26.6,75,30.02,10.0,SSW,5.8,-,N/A,,Overcast,200,2012-12-08 00:53:00
8:53 PM,34.0,27.0,75,30.04,10.0,SSW,6.9,-,N/A,,Overcast,200,2012-12-08 01:53:00
9:53 PM,35.1,28.9,78,30.03,10.0,SSW,4.6,-,N/A,,Overcast,200,2012-12-08 02:53:00
10:53 PM,35.1,28.9,78,30.03,10.0,South,4.6,-,N/A,,Overcast,190,2012-12-08 03:53:00
11:53 PM,33.1,28.0,82,30.02,10.0,South,3.5,-,N/A,,Mostly Cloudy,180,2012-12-08 04:53:00